This is the latest recevied weather packets stored in our database for station/object KC1IUC-13. If no packets are shown the sender has not sent any weather packets the latest 10 day(s).
| Time | Temp. | Humidity | Pressure | Rain* | Wind** | Luminosity | Snow |
|---|---|---|---|---|---|---|---|
| 1777302004 | 17.22° C | 58% | 1020.7 hPa | 0 mm | - | 106 W/m² | - |
| 1777301644 | 17.22° C | 59% | 1020.7 hPa | 0 mm | - | 261 W/m² | - |
| 1777301104 | 17.22° C | 60% | 1020.7 hPa | 0 mm | - | 111 W/m² | - |
| 1777300564 | 16.67° C | 61% | 1021 hPa | 0 mm | - | 231 W/m² | - |
| 1777300024 | 17.22° C | 62% | 1021 hPa | 0 mm | - | 231 W/m² | - |
| 1777299484 | 16.67° C | 63% | 1021 hPa | 0 mm | - | 55 W/m² | - |
| 1777298944 | 17.22° C | 66% | 1020.7 hPa | 0 mm | - | 156 W/m² | - |
| 1777298404 | 16.67° C | 67% | 1020.3 hPa | 0 mm | - | 56 W/m² | - |
| 1777298044 | 16.67° C | 69% | 1020.7 hPa | 0 mm | - | 155 W/m² | - |
| 1777297504 | 16.11° C | 70% | 1020.7 hPa | 0 mm | - | 333 W/m² | - |
| 1777296964 | 16.67° C | 72% | 1020.3 hPa | 0 mm | - | 242 W/m² | - |
| 1777296424 | 15.56° C | 75% | 1020.3 hPa | 0 mm | - | 391 W/m² | - |
| 1777295884 | 15° C | 77% | 1020.3 hPa | 0 mm | - | 261 W/m² | - |
| 1777295344 | 13.89° C | 79% | 1020.3 hPa | 0 mm | - | 293 W/m² | - |
| 1777294804 | 13.33° C | 81% | 1020.3 hPa | 0 mm | - | 119 W/m² | - |
| 1777294444 | 13.33° C | 82% | 1020.3 hPa | 0 mm | - | 104 W/m² | - |
| 1777293903 | 12.22° C | 82% | 1020.3 hPa | 0 mm | - | 77 W/m² | - |
| 1777293364 | 11.67° C | 82% | 1020.3 hPa | 0 mm | - | 65 W/m² | - |
| 1777292824 | 11.67° C | 83% | 1020.3 hPa | 0 mm | - | 59 W/m² | - |
| 1777292284 | 10.56° C | 83% | 1020 hPa | 0 mm | - | 60 W/m² | - |
| 1777291744 | 10° C | 83% | 1020 hPa | 0 mm | - | 63 W/m² | - |
| 1777291204 | 9.44° C | 84% | 1020 hPa | 0 mm | - | 49 W/m² | - |
| 1777290844 | 8.89° C | 83% | 1020 hPa | 0 mm | - | 49 W/m² | - |
| 1777290304 | 7.78° C | 82% | 1020 hPa | 0 mm | - | 32 W/m² | - |
| 1777289764 | 7.22° C | 82% | 1020 hPa | 0 mm | - | 39 W/m² | - |
* Rain latest hour (hover to see other rain measurements)
** Current wind speed in m/s (hover to see current wind gust speed)